Regional Weather Roundup
Issued by NWS

Home | Current Version | Previous Version | Text Only | Print | Product List | Glossary On
Versions: 1 2 3 4 5 6 7 8 9 10 11 12 13 14 15 16 17 18 19 20 21 22 23 24 25 26 27 28 29 30 31 32 33 34 35 36 37 38 39 40 41 42 43 44 45 46 47 48 49 50
000
ASUS45 KBOI 260910
RWRID

IDAHO REGIONAL WEATHER ROUNDUP
NATIONAL WEATHER SERVICE BOISE ID
300 AM MDT SUN MAY 26 2019

NOTE: "FAIR" INDICATES FEW OR NO CLOUDS BELOW 12000 FEET
WITH NO SIGNIFICANT WEATHER AND/OR OBSTRUCTIONS TO VISIBILITY

IDZ012-014-261000-
SOUTHWEST IDAHO


CITY           SKY/WX    TMP DP  RH WIND       PRES   REMARKS
BOISE          MOCLDY    51  45  79 SE5       29.73F
CALDWELL       MOCLDY    49  47  93 N3        29.74S
MOUNTAIN HOME  CLOUDY    50 N/A N/A SW9       29.75S
$$

IDZ016-017-261000-
SOUTHCENTRAL IDAHO


CITY           SKY/WX    TMP DP  RH WIND       PRES   REMARKS
BURLEY         CLOUDY    48  45  89 NE3       29.78F
JEROME         CLOUDY    49  46  90 E12       29.78F
TWIN FALLS     CLOUDY    49  43  80 S7        29.77F
$$

IDZ019>023-261000-
SOUTHEAST IDAHO


CITY           SKY/WX    TMP DP  RH WIND       PRES   REMARKS
IDAHO FALLS    CLOUDY    50  41  71 SE7       29.88S
POCATELLO      MOCLDY    48  41  76 NE3       29.85S
REXBURG        CLOUDY    50  40  68 S13G20    29.89S
$$

IDZ006-010-011-018-031-032-261000-
CENTRAL IDAHO MOUNTAINS


CITY           SKY/WX    TMP DP  RH WIND       PRES   REMARKS
MCCALL         CLOUDY    39  36  89 CALM      29.80S
HAILEY         MOCLDY    43  43 100 NW5       29.86S
STANLEY          N/A     39  36  89 CALM      29.86S
SALMON         CLOUDY    48  47  96 CALM      29.85R
CHALLIS        LGT RAIN  49  44  83 N3        29.84R
$$

IDZ002-004-006-007-026-261000-
NORTHERN IDAHO


CITY           SKY/WX    TMP DP  RH WIND       PRES   REMARKS
LEWISTON       CLOUDY    56  51  84 NE6       29.76S
LOWELL           N/A     53  53 100 CALM      29.80S
COEUR D`ALENE  LGT RAIN  53  49  86 N9        29.81R
MULLAN PASS    LGT RAIN  40  38  93 SE6       29.87R VSB 3/4
$$



USA.gov is the U.S. government's official web portal to all federal, state and local government web resources and services.